Retour au catalogue

FENGYUN 1C DEB

ActifPO
NORAD 37048·DEBRIS·🇨🇳 China

Lancé May 10, 1999 depuis Taiyuan Satellite Launch Center

Loading…

Prochains Passages (prochaines 24 heures)

TLE

FraisSource: Space-Track

Époque: Sep 13, 2026, 09:17 UTC

1 37048U 99025EEG 26256.38742222  .00000186  00000-0  22089-3 0  9997
2 37048  98.8590  99.6408 0253026 150.0084 341.7929 13.65321344659170

Suivez FENGYUN 1C DEB en temps réel avec AllMySat

Download on the App Store